FW0801 Weather Reports


Display with metric or nautical units.
time (UTC)temp
F
wind
direction
speed
MPH
gust
MPH
rain 1hr
in
rain 24hr
in
rain mn
in
humidity
%
barometer
mb
20260507005240 56 112 9.0 10.0 0.00 1.07 0.00 96 1012.3
20260507004640 56 135 9.0 10.0 0.00 1.07 0.00 97 1012.1
20260507004540 56 90 9.0 11.0 0.00 1.07 0.00 97 1012.2
20260507004139 56 90 8.0 9.0 0.00 1.07 0.00 97 1012.0
20260507004040 56 112 7.0 9.0 0.00 1.07 0.00 97 1012.4
20260507003940 56 135 7.0 10.0 0.00 1.07 0.00 97 1012.3
20260507003340 56 90 7.0 11.0 0.00 1.07 0.00 98 1012.4
20260507003040 56 90 9.0 11.0 0.00 1.07 0.00 97 1012.1
20260507002939 56 90 9.0 11.0 0.00 1.07 0.00 97 1012.3
20260507002540 56 112 9.0 11.0 0.00 1.07 0.00 97 1012.1
20260507002440 56 90 9.0 12.0 0.00 1.07 0.00 98 1012.2
20260507002340 56 90 8.0 9.0 0.00 1.07 0.00 98 1012.1
20260507002039 56 112 9.0 12.0 0.00 1.07 0.00 97 1012.3
20260507001840 57 90 9.0 11.0 0.00 1.07 0.00 97 1012.0
20260507001740 57 112 9.0 11.0 0.00 1.07 0.00 98 1012.2
20260507001640 56 90 9.0 11.0 0.00 1.07 0.00 98 1012.2
20260507001239 56 90 9.0 10.0 0.00 1.07 0.00 98 1012.2
20260507001139 57 90 11.0 14.0 0.00 1.07 0.00 97 1012.3
20260507000939 57 90 11.0 13.0 0.00 1.07 0.00 97 1012.0
20260507000840 57 90 10.0 12.0 0.00 1.07 0.00 97 1012.3
20260507000640 56 90 10.0 12.0 0.00 1.07 0.00 98 1012.0
20260507000539 56 90 10.0 12.0 0.00 1.07 0.00 98 1012.2
20260507000442 56 90 10.0 12.0 0.00 1.07 0.00 98 1012.0
20260507000340 56 90 10.0 12.0 0.00 1.07 0.00 98 1012.0
20260507000140 56 90 10.0 12.0 0.00 1.07 0.00 98 1012.1
20260506235940 56 90 10.0 12.0 0.00 1.07 0.00 98 1012.0
20260506235839 56 112 9.0 11.0 0.00 1.07 0.00 98 1011.9
20260506235739 56 90 10.0 12.0 0.00 1.07 0.00 98 1012.0
20260506235639 56 90 10.0 12.0 0.00 1.07 0.00 98 1012.0
20260506235539 56 90 10.0 11.0 0.00 1.07 0.00 98 1012.1
20260506235340 56 68 11.0 13.0 0.00 1.07 0.00 97 1012.1
20260506235239 57 90 9.0 12.0 0.00 1.07 0.00 98 1011.9
20260506235139 57 90 10.0 12.0 0.00 1.07 0.00 98 1012.0
20260506235039 56 90 9.0 10.0 0.00 1.07 0.00 97 1011.9
20260506234840 56 90 11.0 12.0 0.00 1.07 0.00 97 1012.1
20260506234740 56 90 9.0 10.0 0.00 1.07 0.00 97 1012.0
20260506234640 56 90 10.0 12.0 0.00 1.07 0.00 98 1012.0
20260506234440 56 90 9.0 10.0 0.00 1.07 0.00 97 1012.0
20260506234239 56 90 9.0 11.0 0.00 1.07 0.00 98 1011.9
20260506234040 56 90 9.0 10.0 0.00 1.07 0.00 97 1011.9
20260506233939 56 90 9.0 11.0 0.00 1.07 0.00 98 1011.8
20260506233740 56 90 9.0 10.0 0.00 1.07 0.00 98 1011.9
20260506233240 56 90 8.0 9.0 0.00 1.07 0.00 98 1012.0
20260506232940 56 90 10.0 11.0 0.00 1.07 0.00 98 1011.9
20260506232739 56 90 8.0 11.0 0.00 1.07 0.00 98 1011.9
20260506232539 56 90 9.0 10.0 0.00 1.07 0.00 97 1012.0
20260506232340 56 112 8.0 9.0 0.00 1.07 0.00 98 1012.2
20260506232239 56 112 9.0 10.0 0.00 1.07 0.00 97 1012.2
20260506231940 57 90 9.0 11.0 0.00 1.07 0.00 96 1012.2
20260506231740 57 90 9.0 11.0 0.00 1.07 0.00 97 1011.9
20260506231340 56 90 9.0 12.0 0.00 1.07 0.00 98 1012.0
20260506231239 56 90 9.0 11.0 0.00 1.07 0.00 97 1012.1
20260506231139 57 90 9.0 9.0 0.00 1.07 0.00 98 1012.2
20260506230740 57 90 10.0 14.0 0.00 1.07 0.00 97 1012.1
20260506230539 56 90 9.0 12.0 0.00 1.07 0.00 98 1011.9
20260506230439 56 112 8.0 11.0 0.00 1.07 0.00 97 1011.9
20260506230140 57 90 10.0 11.0 0.00 1.07 0.00 97 1011.9
20260506225939 56 90 9.0 11.0 0.00 1.07 0.00 98 1012.0
20260506225739 56 112 9.0 12.0 0.00 1.07 0.00 97 1011.9
20260506225544 57 112 9.0 10.0 0.00 1.07 0.00 97 1011.9
20260506225240 57 112 9.0 12.0 0.00 1.07 0.00 97 1012.2
20260506225039 57 90 9.0 12.0 0.00 1.07 0.00 96 1012.0
20260506224840 56 90 9.0 12.0 0.00 1.07 0.00 97 1012.2
20260506224539 56 90 9.0 11.0 0.00 1.07 0.00 98 1012.2
20260506224340 56 90 8.0 10.0 0.00 1.07 0.00 98 1012.1
20260506223740 56 90 7.0 9.0 0.00 1.07 0.00 98 1011.8
20260506223340 57 90 9.0 11.0 0.00 1.07 0.00 97 1011.9
20260506223140 56 90 9.0 11.0 0.00 1.07 0.00 97 1012.0
20260506223040 57 112 9.0 10.0 0.00 1.07 0.00 97 1012.0
20260506222939 56 90 9.0 9.0 0.00 1.08 0.00 97 1011.8
20260506222840 56 90 9.0 11.0 0.00 1.08 0.00 98 1012.1
20260506222639 56 90 8.0 9.0 0.00 1.08 0.00 97 1012.2
20260506222239 56 90 10.0 11.0 0.00 1.08 0.00 97 1012.2
20260506222139 56 90 9.0 11.0 0.00 1.08 0.00 98 1012.1
20260506221840 58 90 10.0 11.0 0.00 1.08 0.00 96 1012.0
20260506221740 58 90 10.0 11.0 0.00 1.08 0.00 96 1012.2
20260506221640 58 90 9.0 11.0 0.00 1.08 0.00 96 1012.1
20260506221539 58 68 10.0 11.0 0.00 1.08 0.00 95 1012.3
20260506221440 58 90 10.0 12.0 0.00 1.08 0.00 96 1012.2
20260506221239 58 68 10.0 12.0 0.00 1.08 0.00 96 1012.0
20260506221140 58 68 10.0 12.0 0.00 1.08 0.00 96 1012.0
20260506220940 58 68 11.0 12.0 0.00 1.08 0.00 96 1012.2
20260506220639 57 90 11.0 12.0 0.00 1.08 0.00 97 1012.1
20260506220439 57 90 11.0 12.0 0.00 1.08 0.00 96 1012.2
20260506220240 57 112 9.0 11.0 0.00 1.08 0.00 97 1012.1
20260506215939 57 90 11.0 14.0 0.00 1.08 1.08 97 1011.9
20260506215440 57 90 10.0 11.0 0.00 1.08 1.08 97 1012.1
20260506214839 57 90 10.0 12.0 0.00 1.08 1.08 96 1012.1
20260506214739 57 90 10.0 12.0 0.00 1.08 1.08 96 1012.1
20260506214640 57 90 11.0 14.0 0.00 1.08 1.08 95 1012.0
20260506214539 57 90 11.0 14.0 0.00 1.08 1.08 95 1012.1
20260506214439 57 112 11.0 14.0 0.00 1.08 1.08 96 1012.1
20260506214240 57 68 11.0 12.0 0.00 1.08 1.08 96 1012.0
20260506214039 57 90 11.0 14.0 0.00 1.08 1.08 97 1012.1
20260506213940 57 90 10.0 12.0 0.00 1.08 1.08 97 1011.9
20260506213840 57 90 10.0 12.0 0.00 1.08 1.08 97 1012.2
20260506213740 57 90 10.0 12.0 0.00 1.08 1.08 96 1012.0
20260506213640 57 90 10.0 11.0 0.00 1.08 1.08 97 1012.0
20260506213239 57 90 11.0 12.0 0.00 1.09 1.08 97 1012.1
20260506213140 57 90 10.0 12.0 0.00 1.09 1.08 97 1011.9
20260506212840 57 90 10.0 11.0 0.00 1.09 1.08 97 1012.0
20260506212740 57 90 9.0 11.0 0.00 1.09 1.08 98 1012.1
20260506212640 57 90 10.0 11.0 0.00 1.09 1.08 97 1012.0
20260506212239 57 90 10.0 12.0 0.00 1.09 1.08 97 1012.0
20260506212140 57 90 9.0 10.0 0.00 1.11 1.08 97 1011.9
20260506212040 57 90 8.0 10.0 0.00 1.11 1.08 98 1012.0
20260506211940 57 90 9.0 12.0 0.00 1.11 1.08 98 1012.0
20260506211839 57 90 9.0 9.0 0.00 1.11 1.08 99 1012.0
20260506211739 57 68 9.0 11.0 0.00 1.12 1.08 98 1012.2
20260506211640 57 90 9.0 11.0 0.00 1.12 1.08 98 1012.0
20260506211441 57 68 9.0 12.0 0.00 1.14 1.08 98 1012.1
20260506211340 57 90 9.0 10.0 0.00 1.15 1.08 98 1011.9
20260506211240 57 90 10.0 12.0 0.00 1.15 1.08 97 1012.0
20260506210739 58 90 9.0 11.0 0.00 1.15 1.08 98 1012.0
20260506210440 57 90 8.0 10.0 0.00 1.15 1.08 97 1012.0
20260506210340 57 90 9.0 12.0 0.00 1.15 1.08 97 1011.9
20260506210239 57 90 9.0 11.0 0.00 1.15 1.08 97 1011.7
20260506210139 57 90 9.0 11.0 0.00 1.15 1.08 97 1012.0
20260506210040 57 90 9.0 11.0 0.00 1.15 1.08 97 1011.9
20260506205940 57 112 10.0 13.0 0.00 1.15 1.08 97 1011.7
20260506205640 58 90 11.0 12.0 0.00 1.15 1.08 97 1011.9
20260506205440 58 90 10.0 12.0 0.00 1.16 1.08 97 1011.9
20260506205340 58 90 10.0 11.0 0.00 1.16 1.08 98 1011.8
20260506205239 58 90 10.0 12.0 0.00 1.16 1.08 98 1012.0
20260506204940 58 90 11.0 12.0 0.00 1.20 1.08 95 1011.9
20260506204839 58 90 11.0 12.0 0.00 1.20 1.08 96 1011.9
20260506204340 58 68 11.0 13.0 0.00 1.22 1.08 97 1012.0
20260506204140 58 90 11.0 12.0 0.00 1.22 1.08 98 1011.9
20260506204040 58 90 11.0 14.0 0.00 1.22 1.08 97 1011.8
20260506203840 58 112 9.0 11.0 0.00 1.22 1.08 98 1011.9
20260506203739 58 90 9.0 11.0 0.00 1.22 1.08 98 1011.8
20260506203539 58 90 9.0 12.0 0.00 1.22 1.08 98 1011.8
20260506203439 58 90 10.0 11.0 0.00 1.22 1.08 98 1011.4
20260506203240 58 90 11.0 13.0 0.00 1.22 1.08 98 1011.5
20260506203140 58 90 9.0 11.0 0.00 1.22 1.08 98 1011.8
20260506202640 57 90 11.0 13.0 0.00 1.22 1.08 99 1011.6
20260506202440 57 90 11.0 14.0 0.00 1.22 1.08 99 1011.6
20260506202340 57 90 10.0 13.0 0.00 1.22 1.08 99 1011.8
20260506202240 58 90 10.0 12.0 0.00 1.22 1.08 99 1011.6
20260506202139 58 90 11.0 13.0 0.00 1.22 1.08 98 1011.6
20260506201940 58 90 10.0 12.0 0.00 1.22 1.08 98 1011.7
20260506201739 58 90 11.0 14.0 0.00 1.22 1.08 98 1011.7
20260506201439 58 90 10.0 14.0 0.00 1.22 1.08 98 1011.5
20260506201340 58 90 10.0 11.0 0.00 1.22 1.08 98 1011.6
20260506201239 58 90 11.0 12.0 0.00 1.22 1.08 98 1011.5
20260506201139 58 90 12.0 16.0 0.00 1.22 1.08 97 1011.5
20260506200940 58 90 10.0 12.0 0.00 1.22 1.08 98 1011.5
20260506200640 58 90 10.0 12.0 0.00 1.22 1.08 98 1011.4
20260506200539 58 90 10.0 12.0 0.00 1.22 1.08 98 1011.5
20260506200440 57 90 10.0 11.0 0.00 1.22 1.08 98 1011.5
20260506200340 58 90 9.0 11.0 0.00 1.22 1.08 99 1011.4
20260506200140 57 90 11.0 12.0 0.00 1.22 1.08 98 1011.6
20260506195839 58 90 9.0 10.0 0.00 1.22 1.08 98 1011.2
20260506195640 58 90 9.0 10.0 0.00 1.22 1.08 98 1011.1
20260506195540 58 90 9.0 12.0 0.00 1.22 1.08 97 1011.2
20260506195340 58 90 10.0 12.0 0.00 1.22 1.08 96 1011.1
20260506194840 58 90 10.0 12.0 0.00 1.22 1.08 96 1011.0
20260506194339 58 90 11.0 11.0 0.00 1.22 1.08 97 1010.9
20260506193940 58 90 10.0 11.0 0.00 1.22 1.08 96 1011.2
20260506193839 58 68 10.0 12.0 0.00 1.22 1.08 97 1010.9
20260506193340 58 90 10.0 11.0 0.00 1.22 1.08 96 1010.9
20260506193240 58 90 9.0 12.0 0.00 1.22 1.08 96 1011.1
20260506192939 58 68 9.0 12.0 0.00 1.22 1.08 96 1011.0
20260506192840 58 68 9.0 12.0 0.00 1.22 1.08 96 1011.0
20260506192539 58 90 10.0 12.0 0.00 1.22 1.08 96 1011.1
20260506191940 58 90 11.0 12.0 0.00 1.22 1.08 97 1011.0
20260506191740 58 90 11.0 12.0 0.00 1.22 1.08 96 1010.9
20260506191340 58 90 11.0 13.0 0.00 1.22 1.08 96 1010.9
20260506191039 58 90 11.0 12.0 0.00 1.22 1.08 96 1010.8
20260506190939 58 68 11.0 13.0 0.00 1.22 1.08 96 1011.0
20260506190740 58 90 11.0 12.0 0.00 1.22 1.08 96 1010.8
20260506190640 58 90 11.0 14.0 0.00 1.22 1.08 96 1010.8
20260506190539 58 68 11.0 14.0 0.00 1.22 1.08 95 1010.7
20260506190339 58 68 11.0 13.0 0.00 1.22 1.08 96 1010.9
20260506190240 58 90 11.0 12.0 0.00 1.22 1.08 95 1010.7
20260506190139 58 90 11.0 13.0 0.00 1.22 1.08 95 1010.7
20260506185840 58 90 11.0 13.0 0.00 1.22 1.08 97 1010.7
20260506185640 57 90 9.0 10.0 0.00 1.22 1.08 98 1010.7
20260506185139 57 90 10.0 11.0 0.05 1.22 1.08 98 1010.6
20260506185040 57 90 11.0 12.0 0.07 1.22 1.08 98 1010.8
20260506184839 57 90 11.0 13.0 0.17 1.22 1.08 97 1010.4
20260506184739 57 90 10.0 12.0 0.18 1.22 1.08 98 1010.7
20260506184540 58 112 11.0 13.0 0.24 1.22 1.08 97 1010.4
20260506184440 58 90 11.0 12.0 0.27 1.22 1.08 98 1010.5
20260506184240 57 90 9.0 11.0 0.31 1.22 1.08 98 1010.4
20260506184139 57 90 9.0 11.0 0.35 1.22 1.08 97 1010.5
20260506184039 57 90 9.0 12.0 0.37 1.22 1.08 97 1010.4
20260506183540 57 90 11.0 13.0 0.51 1.22 1.08 98 1010.5
20260506183239 57 68 10.0 12.0 0.59 1.22 1.08 98 1010.5
20260506183039 57 68 9.0 11.0 0.61 1.22 1.08 99 1010.5
20260506182840 57 68 9.0 11.0 0.67 1.22 1.08 99 1010.5
20260506182439 56 90 11.0 12.0 0.67 1.22 1.08 99 1010.5
20260506182339 56 90 11.0 12.0 0.67 1.22 1.08 99 1010.5
20260506182239 56 68 10.0 11.0 0.67 1.22 1.08 99 1010.5
20260506181940 55 68 11.0 12.0 0.67 1.22 1.08 99 1010.6
20260506181840 55 90 10.0 12.0 0.67 1.22 1.08 99 1010.6
20260506181740 55 90 10.0 12.0 0.67 1.22 1.08 99 1010.6
20260506181639 55 90 10.0 12.0 0.67 1.22 1.08 99 1010.6
20260506181140 55 90 10.0 11.0 0.67 1.22 1.08 99 1010.4
20260506181039 55 68 11.0 12.0 0.67 1.22 1.08 99 1010.5
20260506180540 54 90 11.0 14.0 0.67 1.22 1.08 99 1010.3
20260506180240 54 90 9.0 11.0 0.67 1.22 1.08 99 1010.5
20260506180040 53 90 9.0 10.0 0.67 1.22 1.08 99 1010.7
20260506175739 53 68 5.0 6.0 0.67 1.22 1.08 99 1010.4
20260506175639 53 90 4.0 5.0 0.66 1.21 1.07 99 1010.1
20260506175139 54 112 5.0 7.0 0.60 1.15 1.01 99 1010.0
20260506174939 55 90 2.0 4.0 0.49 1.05 0.90 99 1009.7
20260506174239 54 45 8.0 14.0 0.31 0.87 0.73 99 1010.1
20260506174039 53 0 4.0 6.0 0.28 0.83 0.69 99 1010.0
20260506173939 53 22 3.0 4.0 0.25 0.81 0.67 99 1009.9
20260506173839 53 315 4.0 8.0 0.21 0.76 0.62 99 1009.5
20260506173639 52 270 6.0 9.0 0.15 0.70 0.56 99 1009.6
20260506173340 54 315 10.0 12.0 0.08 0.63 0.49 99 1009.0
20260506173139 54 292 9.0 12.0 0.05 0.61 0.47 99 1008.8
20260506172839 60 292 9.0 14.0 0.00 0.55 0.41 93 1008.7
20260506172525 62 270 7.0 11.0 0.00 0.55 0.41 90 1008.6
20260506172240 63 248 5.0 8.0 0.00 0.55 0.41 92 1008.4
20260506172140 63 292 3.0 4.0 0.00 0.55 0.41 93 1008.5
20260506171840 66 315 1.0 2.0 0.00 0.55 0.41 92 1008.3
20260506171640 66 90 2.0 3.0 0.00 0.55 0.41 91 1008.2
20260506171540 66 90 2.0 4.0 0.00 0.55 0.41 92 1008.4
20260506171339 65 45 0.0 1.0 0.00 0.55 0.41 93 1008.1
20260506171239 65 225 0.0 1.0 0.00 0.55 0.41 93 1008.2
20260506171040 65 135 3.0 6.0 0.00 0.55 0.41 92 1007.9
20260506170939 65 112 3.0 4.0 0.00 0.55 0.41 93 1007.9
20260506170840 65 112 2.0 4.0 0.00 0.55 0.41 94 1008.1
20260506170540 64 90 1.0 1.0 0.00 0.55 0.41 95 1007.9
20260506170440 63 135 1.0 2.0 0.00 0.55 0.41 95 1007.9
20260506170240 63 270 0.0 1.0 0.00 0.55 0.41 96 1008.1
20260506170140 63 292 0.0 1.0 0.00 0.55 0.41 96 1007.8
20260506165740 63 112 2.0 3.0 0.00 0.55 0.41 95 1008.0
20260506165539 62 90 0.0 1.0 0.00 0.55 0.41 96 1008.1
20260506165439 62 158 1.0 2.0 0.00 0.55 0.41 97 1007.9
20260506165139 62 90 4.0 6.0 0.00 0.55 0.41 96 1007.9
20260506164940 64 68 5.0 6.0 0.00 0.55 0.41 95 1007.5
20260506164840 63 68 6.0 7.0 0.00 0.55 0.41 96 1007.8
20260506164440 62 68 4.0 5.0 0.00 0.55 0.41 97 1007.8
20260506164240 62 68 6.0 7.0 0.00 0.55 0.41 97 1007.7
20260506164039 61 68 6.0 7.0 0.00 0.55 0.41 97 1007.7
20260506163839 61 68 7.0 7.0 0.00 0.55 0.41 97 1007.6
20260506163739 61 68 6.0 7.0 0.00 0.55 0.41 97 1007.6
20260506163540 61 90 7.0 8.0 0.00 0.55 0.41 97 1007.7
20260506163340 62 90 5.0 7.0 0.00 0.55 0.41 97 1007.5
20260506163039 61 90 7.0 9.0 0.00 0.55 0.41 97 1007.6
20260506162639 61 68 7.0 8.0 0.00 0.55 0.41 98 1007.5
20260506162539 61 90 7.0 8.0 0.00 0.55 0.41 97 1007.6
20260506162140 61 90 8.0 10.0 0.00 0.55 0.41 97 1007.6
20260506162040 61 90 8.0 10.0 0.00 0.55 0.41 97 1007.8
20260506161939 61 68 7.0 8.0 0.00 0.55 0.41 97 1007.9
20260506161840 61 68 8.0 9.0 0.00 0.55 0.41 97 1007.8
20260506161539 61 90 8.0 9.0 0.00 0.55 0.41 97 1007.8
20260506161340 61 68 8.0 9.0 0.00 0.55 0.41 97 1007.9
20260506161139 61 68 7.0 7.0 0.00 0.55 0.41 97 1007.9
20260506161039 61 68 6.0 7.0 0.00 0.55 0.41 97 1008.0
20260506160940 61 90 6.0 7.0 0.00 0.55 0.41 97 1007.8
20260506160640 61 90 7.0 8.0 0.00 0.55 0.41 97 1008.0
20260506160340 62 68 6.0 7.0 0.00 0.55 0.41 97 1008.0
20260506160139 61 68 4.0 6.0 0.00 0.55 0.41 97 1007.9
20260506155740 61 90 7.0 8.0 0.00 0.55 0.41 97 1007.9
20260506155540 61 68 6.0 7.0 0.00 0.55 0.41 98 1007.9
20260506155239 62 68 5.0 6.0 0.00 0.55 0.41 98 1007.9
20260506155139 61 68 6.0 7.0 0.00 0.55 0.41 97 1007.9
20260506154540 61 68 6.0 7.0 0.00 0.55 0.41 97 1007.9
20260506154440 61 68 6.0 7.0 0.00 0.55 0.41 97 1007.9
20260506153939 62 68 5.0 6.0 0.00 0.55 0.41 97 1008.1
20260506153839 62 68 5.0 6.0 0.00 0.55 0.41 97 1008.0
20260506153640 61 68 5.0 6.0 0.00 0.55 0.41 97 1007.8
20260506153540 61 90 5.0 7.0 0.00 0.55 0.41 97 1008.1
20260506152839 61 68 7.0 7.0 0.00 0.55 0.41 97 1008.0
20260506152639 61 68 7.0 8.0 0.00 0.55 0.41 97 1008.1
20260506152440 61 68 6.0 7.0 0.00 0.55 0.41 98 1008.0
20260506152240 61 68 5.0 5.0 0.00 0.55 0.41 97 1008.1
20260506152140 61 90 5.0 7.0 0.00 0.55 0.41 97 1008.1
20260506151739 61 68 7.0 8.0 0.00 0.55 0.41 97 1008.0
20260506151639 61 68 8.0 9.0 0.00 0.55 0.41 97 1008.0
20260506151540 61 68 6.0 7.0 0.00 0.55 0.41 97 1008.1
20260506151440 61 68 7.0 8.0 0.00 0.55 0.41 98 1008.1
20260506151339 61 68 5.0 7.0 0.00 0.55 0.41 98 1008.1
20260506151139 61 68 7.0 7.0 0.00 0.55 0.41 97 1008.3
20260506151039 61 68 8.0 9.0 0.00 0.55 0.41 97 1008.2
20260506150940 61 68 8.0 9.0 0.00 0.55 0.41 97 1008.2
20260506150640 61 68 7.0 8.0 0.00 0.55 0.41 98 1008.2
20260506150340 61 68 7.0 8.0 0.00 0.55 0.41 97 1008.3
20260506150139 61 68 7.0 8.0 0.00 0.55 0.41 97 1008.5
20260506145839 61 68 7.0 7.0 0.00 0.55 0.41 97 1008.3
20260506145639 61 68 6.0 8.0 0.00 0.55 0.41 98 1008.5
20260506145340 61 68 7.0 8.0 0.00 0.55 0.41 97 1008.5
20260506145139 61 68 7.0 8.0 0.00 0.55 0.41 98 1008.5
20260506145039 61 68 7.0 8.0 0.00 0.55 0.41 98 1008.5
20260506144840 61 90 7.0 8.0 0.00 0.55 0.41 97 1008.7
20260506144239 61 68 7.0 9.0 0.00 0.56 0.41 98 1008.4
20260506144139 61 68 8.0 9.0 0.00 0.56 0.41 98 1008.4
20260506144040 61 68 8.0 9.0 0.00 0.56 0.41 97 1008.6
20260506143840 61 90 8.0 9.0 0.00 0.56 0.41 98 1008.6
20260506143539 61 68 9.0 11.0 0.00 0.56 0.41 98 1008.7
20260506143340 61 90 7.0 9.0 0.00 0.57 0.41 98 1009.0
20260506143239 60 90 7.0 9.0 0.00 0.57 0.41 98 1008.7
20260506142540 60 68 7.0 8.0 0.00 0.57 0.41 99 1009.0
20260506142440 61 90 7.0 8.0 0.00 0.57 0.41 98 1008.8
20260506142341 60 68 8.0 9.0 0.00 0.57 0.41 98 1009.0
20260506142039 60 68 9.0 10.0 0.00 0.59 0.41 98 1009.0
20260506141939 60 90 8.0 9.0 0.00 0.59 0.41 98 1009.2
20260506141440 60 68 7.0 8.0 0.00 0.59 0.41 99 1009.1
20260506140640 60 68 7.0 9.0 0.00 0.59 0.41 98 1009.5
20260506140540 60 68 7.0 8.0 0.00 0.59 0.41 99 1009.4
20260506140140 60 68 8.0 9.0 0.00 0.59 0.41 98 1009.4
20260506135940 60 68 7.0 9.0 0.00 0.59 0.41 98 1009.3
20260506135839 60 68 8.0 9.0 0.00 0.59 0.41 98 1009.4
20260506135739 60 68 7.0 9.0 0.00 0.59 0.41 99 1009.5
20260506135539 60 68 7.0 8.0 0.00 0.59 0.41 98 1009.5
20260506135340 60 68 8.0 9.0 0.00 0.59 0.41 98 1009.2
20260506135239 60 68 8.0 9.0 0.00 0.59 0.41 98 1009.3
20260506135140 60 68 8.0 9.0 0.00 0.59 0.41 98 1009.5
20260506134939 60 68 7.0 8.0 0.00 0.59 0.41 98 1009.3
20260506134740 60 68 9.0 11.0 0.00 0.59 0.41 98 1009.5
20260506134640 60 68 7.0 9.0 0.00 0.59 0.41 99 1009.3
20260506134541 60 68 7.0 7.0 0.00 0.59 0.41 99 1009.2
20260506134339 60 68 8.0 9.0 0.00 0.59 0.41 98 1009.4
20260506134239 60 68 7.0 9.0 0.00 0.59 0.41 98 1009.5
20260506134039 60 68 9.0 10.0 0.00 0.59 0.41 98 1009.5
20260506133740 60 68 8.0 9.0 0.00 0.59 0.41 99 1009.4
20260506133640 60 68 7.0 9.0 0.00 0.59 0.41 99 1009.5
20260506133240 60 68 8.0 9.0 0.00 0.59 0.41 99 1009.9
20260506132539 60 68 7.0 7.0 0.00 0.59 0.41 99 1009.8
20260506132340 59 68 7.0 11.0 0.00 0.59 0.41 99 1009.7
20260506132240 59 68 9.0 10.0 0.00 0.59 0.41 99 1009.6
20260506132140 59 68 9.0 10.0 0.00 0.59 0.41 99 1009.6
20260506132040 60 68 8.0 9.0 0.00 0.59 0.41 99 1009.6
20260506131839 59 90 7.0 8.0 0.00 0.59 0.41 99 1009.6
20260506131639 60 90 8.0 10.0 0.00 0.59 0.41 99 1009.8
20260506130940 59 68 7.0 8.0 0.00 0.59 0.41 99 1009.6
20260506130739 59 68 7.0 8.0 0.00 0.59 0.41 99 1009.5
20260506130640 59 68 7.0 9.0 0.00 0.59 0.41 99 1009.7
20260506130339 59 90 7.0 8.0 0.00 0.59 0.41 99 1009.7
20260506125940 59 90 7.0 8.0 0.00 0.59 0.41 99 1009.8
20260506125840 59 68 7.0 7.0 0.00 0.59 0.41 99 1009.8
20260506125640 60 68 7.0 9.0 0.00 0.60 0.41 99 1009.7
20260506125540 59 68 7.0 9.0 0.00 0.60 0.41 99 1009.6
20260506125440 59 68 8.0 9.0 0.00 0.60 0.41 99 1009.8
20260506125339 59 68 8.0 9.0 0.00 0.60 0.41 99 1009.7
20260506125239 59 68 8.0 9.0 0.00 0.60 0.41 99 1009.7
20260506125139 59 68 9.0 9.0 0.00 0.60 0.41 99 1009.9
20260506124940 59 90 7.0 9.0 0.00 0.60 0.41 99 1009.7
20260506124640 59 68 7.0 8.0 0.00 0.60 0.41 99 1009.8
20260506124440 59 68 8.0 9.0 0.00 0.60 0.41 99 1009.9
20260506124240 58 68 7.0 9.0 0.00 0.60 0.41 99 1009.8
20260506123940 58 90 7.0 9.0 0.00 0.60 0.41 99 1010.0
20260506123840 58 90 8.0 9.0 0.00 0.60 0.41 99 1009.9
20260506123540 58 68 7.0 7.0 0.00 0.60 0.41 99 1010.0
20260506123440 58 68 8.0 9.0 0.00 0.60 0.41 99 1009.9
20260506123340 59 68 7.0 9.0 0.00 0.60 0.41 99 1009.8
20260506123140 58 68 8.0 9.0 0.00 0.60 0.41 99 1009.9
20260506122839 59 68 7.0 9.0 0.00 0.61 0.41 99 1009.8
20260506122739 58 90 8.0 9.0 0.00 0.61 0.41 99 1009.8
20260506122539 58 68 7.0 9.0 0.00 0.61 0.41 99 1009.8
20260506122439 58 90 8.0 9.0 0.00 0.61 0.41 99 1010.1
20260506122340 58 68 9.0 9.0 0.00 0.61 0.41 99 1010.1
20260506121740 57 68 8.0 9.0 0.00 0.61 0.41 99 1009.8
20260506121339 58 68 9.0 10.0 0.00 0.62 0.41 99 1010.0
20260506121239 58 68 8.0 9.0 0.00 0.62 0.41 99 1010.1
20260506121139 57 68 9.0 10.0 0.00 0.62 0.41 99 1010.2
20260506121040 58 68 9.0 10.0 0.00 0.62 0.41 99 1010.1
20260506120940 58 68 9.0 10.0 0.00 0.62 0.41 99 1010.1
20260506120840 58 68 8.0 9.0 0.00 0.62 0.41 99 1010.0
20260506120340 57 68 8.0 9.0 0.00 0.62 0.41 99 1010.3
20260506120240 57 68 8.0 9.0 0.00 0.62 0.41 99 1010.3
20260506120139 57 68 8.0 9.0 0.00 0.62 0.41 99 1010.3
20260506120040 57 68 8.0 9.0 0.00 0.62 0.41 99 1010.2
20260506115840 57 68 8.0 9.0 0.00 0.62 0.41 99 1010.3
20260506115739 57 68 8.0 9.0 0.00 0.62 0.41 99 1010.3
20260506115540 57 68 8.0 10.0 0.00 0.62 0.41 99 1010.2
20260506115339 58 68 9.0 11.0 0.00 0.63 0.41 99 1010.3
20260506115239 58 68 9.0 10.0 0.00 0.63 0.41 99 1010.2
20260506115139 58 68 8.0 10.0 0.00 0.63 0.41 99 1010.4
20260506115040 58 68 8.0 9.0 0.00 0.63 0.41 99 1010.2
20260506114839 58 68 9.0 10.0 0.00 0.63 0.41 99 1010.3
20260506114639 58 68 9.0 11.0 0.00 0.63 0.41 99 1010.2
20260506114440 58 68 8.0 9.0 0.00 0.63 0.41 99 1010.5
20260506114139 58 68 8.0 9.0 0.01 0.63 0.41 99 1010.3
20260506113440 57 90 7.0 9.0 0.03 0.63 0.41 99 1010.4
20260506113340 58 68 8.0 9.0 0.03 0.63 0.41 99 1010.3
20260506113240 57 68 7.0 9.0 0.03 0.64 0.41 99 1010.5
20260506113140 57 90 7.0 8.0 0.04 0.64 0.41 99 1010.5
20260506112941 58 90 7.0 7.0 0.05 0.64 0.41 99 1010.4
20260506112739 57 68 8.0 9.0 0.05 0.64 0.41 99 1010.4
20260506112339 57 68 7.0 9.0 0.05 0.64 0.41 99 1010.5
20260506112240 57 68 7.0 8.0 0.05 0.64 0.41 99 1010.4
20260506112139 57 68 8.0 9.0 0.05 0.64 0.41 99 1010.4
20260506111940 57 68 7.0 9.0 0.05 0.64 0.41 99 1010.2
20260506111640 57 68 5.0 7.0 0.05 0.64 0.41 99 1010.6
20260506110940 57 68 6.0 7.0 0.05 0.64 0.41 99 1010.2
20260506110839 57 90 5.0 6.0 0.05 0.64 0.41 99 1010.5
20260506110740 57 90 5.0 6.0 0.05 0.64 0.41 99 1010.6
20260506110340 57 90 7.0 7.0 0.05 0.64 0.41 99 1010.6
20260506110139 57 112 6.0 7.0 0.05 0.64 0.41 99 1010.5
20260506105839 57 90 5.0 6.0 0.05 0.64 0.41 99 1010.5
20260506105739 57 90 6.0 6.0 0.05 0.64 0.41 99 1010.7
20260506105540 57 90 5.0 6.0 0.05 0.64 0.41 99 1010.6
20260506105440 56 90 5.0 6.0 0.05 0.64 0.41 99 1010.7
20260506104940 56 90 4.0 5.0 0.07 0.64 0.41 99 1010.6
20260506104840 56 90 4.0 5.0 0.07 0.64 0.41 99 1010.8
20260506104740 56 112 4.0 6.0 0.07 0.64 0.41 99 1010.7
20260506104540 56 90 4.0 5.0 0.07 0.64 0.41 99 1011.1
20260506104240 56 90 4.0 4.0 0.07 0.63 0.40 99 1010.8
20260506104040 56 90 4.0 4.0 0.07 0.63 0.40 99 1010.8
20260506103939 56 90 4.0 5.0 0.07 0.63 0.40 99 1011.0
20260506103340 57 90 5.0 6.0 0.05 0.61 0.37 99 1010.9
20260506103240 57 68 5.0 6.0 0.04 0.60 0.36 99 1010.8
20260506103040 57 68 7.0 7.0 0.03 0.59 0.35 99 1010.7
20260506102840 58 90 8.0 9.0 0.03 0.59 0.35 99 1010.5
20260506102440 57 90 8.0 10.0 0.03 0.59 0.35 99 1010.4
20260506102340 57 90 8.0 9.0 0.03 0.59 0.35 99 1010.6
20260506102240 57 112 9.0 11.0 0.03 0.59 0.35 99 1010.4
20260506102139 57 90 9.0 11.0 0.03 0.59 0.35 99 1010.6
20260506101840 58 68 8.0 9.0 0.03 0.59 0.35 99 1010.6
20260506101740 57 90 7.0 9.0 0.03 0.59 0.35 99 1010.7
20260506101640 57 90 7.0 9.0 0.03 0.59 0.35 99 1010.6
20260506101539 57 68 7.0 9.0 0.03 0.59 0.35 99 1010.6
20260506101339 57 90 7.0 9.0 0.03 0.59 0.35 99 1010.7
20260506101239 57 112 7.0 7.0 0.03 0.59 0.35 99 1010.6
20260506101040 57 90 5.0 6.0 0.03 0.59 0.35 99 1010.8
20260506100640 57 90 5.0 6.0 0.03 0.59 0.35 99 1011.1
20260506100540 56 90 7.0 8.0 0.03 0.59 0.35 99 1010.8
20260506100340 57 90 5.0 6.0 0.03 0.59 0.35 99 1010.7
20260506100239 57 90 5.0 7.0 0.03 0.59 0.35 99 1010.7
20260506100140 57 90 5.0 6.0 0.03 0.59 0.35 99 1010.5
20260506100040 57 90 5.0 7.0 0.03 0.59 0.35 99 1010.6
20260506095939 56 90 7.0 7.0 0.03 0.59 0.35 99 1010.7
20260506095739 57 90 6.0 7.0 0.03 0.59 0.35 99 1010.5
20260506095639 57 90 5.0 6.0 0.03 0.59 0.35 99 1010.5
20260506095340 57 90 5.0 6.0 0.03 0.59 0.35 99 1010.6
20260506095040 57 90 6.0 7.0 0.02 0.57 0.34 99 1010.5
20260506094840 57 90 5.0 6.0 0.02 0.57 0.34 99 1010.7
20260506094740 57 112 4.0 5.0 0.02 0.57 0.34 99 1010.8
20260506094539 57 90 4.0 6.0 0.02 0.57 0.34 99 1010.8
20260506094040 57 90 4.0 6.0 0.01 0.56 0.33 99 1010.6
20260506093940 57 90 5.0 6.0 0.01 0.56 0.33 99 1010.8
20260506093840 57 90 6.0 6.0 0.01 0.56 0.33 99 1010.6
20260506093640 57 68 4.0 6.0 0.00 0.55 0.31 99 1010.5
20260506093340 57 112 5.0 6.0 0.00 0.55 0.31 99 1010.5
20260506093239 57 90 6.0 7.0 0.00 0.55 0.31 99 1010.7
20260506093139 57 112 6.0 7.0 0.00 0.55 0.31 99 1010.6
20260506092740 58 90 6.0 7.0 0.00 0.55 0.31 99 1010.2
20260506092339 58 90 5.0 6.0 0.00 0.55 0.31 99 1010.3
20260506092039 58 90 5.0 6.0 0.01 0.55 0.31 99 1010.2
20260506091939 58 90 6.0 7.0 0.01 0.55 0.31 99 1010.1
20260506091340 57 158 2.0 4.0 0.01 0.55 0.31 99 1010.1
20260506091039 58 135 3.0 5.0 0.01 0.55 0.31 99 1010.1
20260506090939 58 112 2.0 4.0 0.01 0.55 0.31 99 1010.0
20260506090840 58 158 2.0 4.0 0.01 0.55 0.31 99 1009.8
20260506090740 58 135 4.0 5.0 0.01 0.55 0.31 99 1010.0
20260506090640 58 180 2.0 2.0 0.01 0.55 0.31 99 1009.8
20260506090439 58 135 3.0 5.0 0.01 0.55 0.31 99 1009.9
20260506090140 59 68 8.0 9.0 0.01 0.55 0.31 98 1010.1
20260506085839 58 112 6.0 7.0 0.01 0.55 0.31 98 1010.0
20260506085640 58 112 6.0 7.0 0.01 0.55 0.31 98 1010.2
20260506085540 59 112 6.0 7.0 0.01 0.55 0.31 98 1010.1
20260506085440 59 68 4.0 6.0 0.01 0.55 0.31 98 1010.6
20260506085140 58 68 7.0 9.0 0.01 0.56 0.31 98 1010.3
20260506084839 58 90 10.0 12.0 0.01 0.56 0.31 98 1010.1
20260506084740 58 68 7.0 8.0 0.01 0.56 0.31 99 1010.1
20260506084640 58 68 9.0 10.0 0.01 0.56 0.31 99 1010.2
20260506084340 58 68 9.0 10.0 0.01 0.56 0.31 99 1010.2
20260506084239 58 68 9.0 9.0 0.01 0.56 0.31 99 1010.3
20260506083940 58 68 7.0 9.0 0.01 0.57 0.31 99 1010.2
20260506083840 57 68 8.0 10.0 0.01 0.57 0.31 99 1010.3
20260506083639 58 90 8.0 9.0 0.02 0.57 0.31 99 1010.1
20260506083439 57 90 8.0 9.0 0.02 0.57 0.31 99 1009.9
20260506083339 57 90 7.0 9.0 0.02 0.57 0.31 99 1009.9
20260506082740 57 90 7.0 8.0 0.03 0.59 0.31 99 1010.2
20260506082639 57 90 7.0 8.0 0.03 0.59 0.31 99 1010.2
20260506082239 57 90 7.0 9.0 0.03 0.59 0.31 99 1010.5
20260506082039 57 90 6.0 7.0 0.02 0.57 0.30 99 1010.6
20260506081940 57 135 6.0 7.0 0.02 0.57 0.30 99 1010.4
20260506081639 57 90 6.0 7.0 0.02 0.57 0.30 99 1010.5
20260506081040 57 90 6.0 7.0 0.03 0.57 0.30 99 1010.6
20260506080539 57 112 7.0 8.0 0.03 0.57 0.30 99 1010.8
20260506080439 57 90 7.0 8.0 0.03 0.57 0.30 99 1010.6
20260506080339 57 90 7.0 7.0 0.03 0.57 0.30 99 1010.5
20260506080140 57 90 6.0 6.0 0.03 0.57 0.30 99 1010.4
20260506073340 57 90 4.0 6.0 0.02 0.55 0.28 99 1010.7
20260506073240 57 90 5.0 6.0 0.02 0.55 0.28 99 1010.4
20260506072840 57 90 4.0 5.0 0.03 0.55 0.28 99 1010.6
20260506072740 57 112 4.0 4.0 0.03 0.55 0.28 99 1010.5
20260506072539 57 90 4.0 5.0 0.03 0.55 0.28 99 1010.5
20260506071940 57 112 3.0 4.0 0.03 0.55 0.28 99 1010.7
20260506071839 57 112 4.0 6.0 0.03 0.55 0.28 99 1010.7
20260506071639 57 112 4.0 5.0 0.03 0.55 0.28 99 1010.8
20260506071340 57 90 2.0 5.0 0.02 0.54 0.27 99 1010.5
20260506071240 57 112 2.0 3.0 0.02 0.54 0.27 99 1010.6
20260506071039 57 90 3.0 4.0 0.02 0.54 0.27 99 1010.8
20260506070839 57 68 2.0 2.0 0.02 0.54 0.27 99 1010.7
20260506070140 57 180 2.0 4.0 0.01 0.53 0.25 99 1010.6
20260506062240 56 90 5.0 7.0 0.10 0.51 0.24 99 1010.7
20260506062040 56 135 5.0 7.0 0.10 0.51 0.24 99 1010.8
20260506061840 56 112 4.0 6.0 0.10 0.51 0.24 99 1010.8
20260506061339 56 112 4.0 6.0 0.11 0.51 0.24 99 1011.1
20260506061139 56 112 5.0 6.0 0.11 0.51 0.24 99 1011.0
20260506060940 56 112 4.0 5.0 0.12 0.51 0.24 99 1010.9
20260506060740 56 112 4.0 4.0 0.12 0.51 0.24 99 1011.0
20260506060540 56 112 5.0 6.0 0.12 0.51 0.24 99 1010.9
20260506060440 56 112 4.0 7.0 0.12 0.51 0.24 99 1011.2
20260506051239 57 90 6.0 7.0 0.09 0.40 0.12 99 1010.8
20260506050939 57 90 7.0 8.0 0.09 0.38 0.11 99 1011.0
20260506050840 57 112 6.0 7.0 0.09 0.38 0.11 99 1011.0
20260506050639 57 90 7.0 9.0 0.09 0.38 0.11 99 1010.8
20260506050439 57 90 7.0 9.0 0.09 0.38 0.11 99 1010.8
20260506050339 57 112 7.0 7.0 0.09 0.38 0.11 99 1010.7
20260506050140 57 112 8.0 10.0 0.10 0.38 0.11 99 1010.6
20260506044840 57 90 7.0 7.0 0.07 0.35 0.08 99 1010.8
20260506044439 57 68 6.0 6.0 0.05 0.34 0.07 99 1010.9
20260506044140 57 90 5.0 6.0 0.05 0.34 0.07 99 1010.9
20260506043940 57 90 6.0 7.0 0.04 0.33 0.05 99 1011.1
20260506043839 57 68 6.0 6.0 0.04 0.33 0.05 99 1011.0
20260506043739 57 68 6.0 7.0 0.04 0.33 0.05 99 1011.1
20260506043539 57 90 5.0 6.0 0.04 0.33 0.05 99 1011.3
20260506043340 57 90 5.0 6.0 0.04 0.33 0.05 99 1011.2
20260506043240 57 90 5.0 6.0 0.04 0.33 0.05 99 1011.2
20260506043140 57 90 5.0 6.0 0.04 0.33 0.05 99 1011.3
20260506042840 57 90 5.0 6.0 0.03 0.31 0.04 99 1011.3
20260506042739 57 90 4.0 5.0 0.03 0.31 0.04 99 1011.2
20260506042440 57 90 4.0 5.0 0.03 0.31 0.04 99 1011.0
20260506042240 57 68 4.0 4.0 0.03 0.31 0.04 99 1011.1
20260506042040 57 68 4.0 5.0 0.03 0.31 0.04 99 1011.1
20260506041939 57 90 5.0 6.0 0.03 0.31 0.04 99 1011.0
20260506041639 57 68 4.0 4.0 0.02 0.30 0.03 99 1011.2
20260506041540 57 68 4.0 5.0 0.02 0.30 0.03 99 1011.2
20260506041339 58 68 5.0 6.0 0.02 0.30 0.03 99 1011.1
20260506041040 57 68 5.0 6.0 0.01 0.29 0.02 99 1011.1
20260506040940 57 68 6.0 6.0 0.01 0.29 0.02 99 1010.9
20260506040739 58 90 5.0 6.0 0.01 0.29 0.02 99 1011.0
20260506040440 57 90 4.0 5.0 0.01 0.29 0.02 99 1011.0
20260506040340 57 68 5.0 6.0 0.01 0.29 0.02 99 1011.3
20260506040140 58 90 4.0 5.0 0.00 0.28 0.01 99 1011.1
20260506040040 58 90 4.0 4.0 0.00 0.28 0.01 99 1011.0
20260506035739 58 90 4.0 6.0 0.00 0.28 0.01 99 1010.9
20260506035639 58 90 5.0 6.0 0.00 0.28 0.01 99 1011.0
20260506035540 57 90 5.0 6.0 0.00 0.28 0.01 99 1011.1
20260506035440 57 90 5.0 6.0 0.00 0.28 0.01 99 1010.9
20260506035340 57 90 6.0 7.0 0.00 0.28 0.01 99 1010.9
20260506035140 57 90 5.0 6.0 0.00 0.28 0.01 99 1010.9
20260506035040 57 90 5.0 6.0 0.00 0.28 0.01 99 1010.9
20260506034940 57 90 5.0 7.0 0.00 0.28 0.01 99 1010.9
20260506034639 57 112 5.0 6.0 0.00 0.28 0.01 99 1010.9
20260506034539 57 112 5.0 6.0 0.00 0.28 0.01 99 1011.0
20260506034440 57 90 5.0 6.0 0.00 0.28 0.01 99 1010.8
20260506034340 57 90 4.0 6.0 0.00 0.28 0.01 99 1010.9
20260506034240 57 135 4.0 5.0 0.00 0.28 0.01 99 1011.0
20260506034140 57 112 3.0 4.0 0.00 0.28 0.01 99 1011.0
20260506033840 57 135 2.0 2.0 0.00 0.28 0.01 99 1010.9
20260506033740 57 112 2.0 3.0 0.00 0.28 0.01 99 1010.7
20260506033140 57 90 5.0 7.0 0.00 0.28 0.01 99 1011.0
20260506033040 57 90 6.0 7.0 0.00 0.28 0.01 99 1010.9
20260506032739 58 90 6.0 7.0 0.00 0.28 0.01 99 1010.9
20260506032340 58 90 6.0 6.0 0.00 0.28 0.01 99 1010.8
20260506032140 57 90 6.0 7.0 0.00 0.28 0.01 99 1010.7
20260506032040 58 90 6.0 7.0 0.00 0.28 0.01 99 1010.6
20260506031739 58 90 6.0 7.0 0.00 0.28 0.01 99 1010.9
20260506031640 58 90 6.0 6.0 0.00 0.28 0.01 99 1010.9
20260506031440 58 90 5.0 6.0 0.00 0.28 0.01 99 1010.8
20260506031339 57 90 5.0 6.0 0.00 0.28 0.01 99 1010.9
20260506031240 58 90 5.0 6.0 0.00 0.28 0.01 99 1010.8
20260506031040 58 90 5.0 6.0 0.00 0.28 0.01 99 1011.0
20260506030840 57 90 5.0 6.0 0.00 0.28 0.01 99 1010.9
20260506030740 58 90 5.0 6.0 0.00 0.28 0.01 99 1011.1
20260506030339 57 90 6.0 7.0 0.00 0.28 0.01 99 1010.9
20260506025840 57 90 6.0 6.0 0.00 0.28 0.01 99 1011.3
20260506025740 57 90 5.0 7.0 0.00 0.28 0.01 99 1011.4
20260506025439 57 90 5.0 6.0 0.00 0.28 0.01 99 1011.6
20260506025040 57 90 5.0 6.0 0.00 0.28 0.01 99 1011.7
20260506024940 58 112 5.0 6.0 0.00 0.28 0.01 99 1011.6
20260506024840 57 90 6.0 6.0 0.00 0.28 0.01 99 1011.8
20260506024740 57 90 5.0 6.0 0.00 0.28 0.01 99 1011.6
20260506024640 58 90 4.0 5.0 0.00 0.28 0.01 99 1011.6
20260506024540 57 90 5.0 6.0 0.00 0.28 0.01 99 1011.8
20260506024239 58 90 4.0 5.0 0.00 0.28 0.01 99 1011.6
20260506024039 57 90 4.0 5.0 0.00 0.28 0.01 99 1011.7
20260506023939 57 90 4.0 5.0 0.00 0.28 0.01 99 1011.7
20260506023740 57 90 4.0 5.0 0.00 0.28 0.01 99 1011.8
20260506023639 57 90 4.0 5.0 0.00 0.28 0.01 99 1011.6
20260506023339 57 112 4.0 5.0 0.00 0.28 0.01 99 1011.9
20260506023140 57 90 4.0 5.0 0.00 0.28 0.01 99 1011.7
20260506023040 57 90 4.0 5.0 0.00 0.28 0.01 99 1011.8
20260506022940 57 90 4.0 5.0 0.00 0.28 0.01 99 1011.7
20260506022639 57 112 4.0 5.0 0.00 0.28 0.01 99 1011.9
20260506022539 58 90 4.0 5.0 0.00 0.28 0.01 99 1011.6
20260506022439 57 90 4.0 4.0 0.00 0.28 0.01 99 1011.7
20260506021839 57 112 4.0 5.0 0.00 0.28 0.01 99 1011.5
20260506021740 58 90 4.0 5.0 0.00 0.28 0.01 99 1011.6
20260506021640 58 90 4.0 6.0 0.00 0.28 0.01 99 1011.6
20260506021440 57 90 4.0 5.0 0.00 0.28 0.01 99 1011.8
20260506020839 58 90 4.0 5.0 0.00 0.28 0.01 99 1011.8
20260506020739 57 90 4.0 5.0 0.00 0.28 0.01 99 1011.9
20260506020540 57 68 4.0 4.0 0.00 0.28 0.01 99 1011.8
20260506020139 57 90 4.0 5.0 0.00 0.28 0.01 99 1012.0
20260506015940 58 68 4.0 6.0 0.00 0.28 0.01 99 1011.8
20260506015840 57 90 4.0 5.0 0.00 0.28 0.01 99 1012.0
20260506015640 58 90 4.0 5.0 0.00 0.28 0.01 99 1011.7
20260506015439 58 90 4.0 6.0 0.00 0.28 0.01 99 1011.9
20260506015349 58 90 4.0 5.0 0.00 0.28 0.01 99 1011.9
20260506015240 58 90 4.0 4.0 0.00 0.28 0.01 99 1012.1
20260506015040 58 90 4.0 4.0 0.00 0.28 0.01 99 1012.0
20260506014740 57 68 4.0 4.0 0.00 0.28 0.01 99 1012.2
20260506014640 57 90 4.0 4.0 0.00 0.28 0.01 99 1012.1
20260506014540 58 90 4.0 5.0 0.00 0.28 0.01 99 1012.1
20260506014440 58 90 3.0 4.0 0.00 0.28 0.01 99 1012.2
20260506014340 58 90 3.0 4.0 0.00 0.28 0.01 99 1012.1
20260506014240 58 90 3.0 4.0 0.00 0.28 0.01 99 1012.0
20260506014140 58 90 4.0 4.0 0.00 0.28 0.01 99 1012.3
20260506014040 57 90 4.0 5.0 0.00 0.28 0.01 99 1012.3
20260506013940 58 90 4.0 4.0 0.00 0.28 0.01 99 1012.2
20260506013739 57 90 4.0 4.0 0.00 0.28 0.01 99 1012.2
20260506013640 58 90 4.0 4.0 0.00 0.28 0.01 99 1012.0
20260506013340 58 90 4.0 5.0 0.00 0.28 0.01 99 1012.1
20260506013239 58 90 4.0 4.0 0.00 0.28 0.01 99 1012.2
20260506013139 57 68 4.0 4.0 0.00 0.28 0.01 99 1011.9
20260506012740 57 68 4.0 4.0 0.00 0.28 0.01 99 1012.0
20260506012639 57 90 4.0 4.0 0.00 0.28 0.01 99 1012.0
20260506012439 57 90 4.0 4.0 0.00 0.28 0.01 99 1012.0
20260506012339 57 90 4.0 4.0 0.00 0.28 0.01 99 1012.0
20260506012239 57 68 3.0 4.0 0.00 0.28 0.01 99 1012.0
20260506012040 57 90 3.0 4.0 0.00 0.28 0.01 99 1012.1
20260506011940 57 90 3.0 4.0 0.00 0.28 0.01 99 1012.0
20260506011839 57 90 4.0 4.0 0.00 0.28 0.01 99 1012.1
20260506011739 57 90 4.0 4.0 0.00 0.28 0.01 99 1012.0
20260506011640 57 90 4.0 4.0 0.00 0.28 0.01 99 1011.8
20260506011441 57 90 4.0 5.0 0.00 0.28 0.01 99 1012.1
20260506010639 57 90 4.0 6.0 0.00 0.28 0.01 99 1011.9
20260506010539 57 90 4.0 4.0 0.00 0.28 0.01 99 1012.1
20260506010240 58 90 3.0 4.0 0.00 0.28 0.01 99 1012.1
20260506010040 58 90 3.0 4.0 0.00 0.28 0.01 99 1012.2
20260506005440 58 90 4.0 4.0 0.00 0.28 0.01 99 1012.3